[TLELIST] Archives

 

[list_settings.list_name] Current TLEs

September 22nd 2008 PDT

HST 1 20580U 90037B 08265.86167201 .00000319 00000-0 11841-4 0 2250 2 20580 028.4679 052.6733 0003420 326.9026 033.1349 15.00409119809512 ISS (ZARYA) 1 25544U 98067A 08265.47025660 -.00003776 00000-0 -23484-4 0 2994 2 25544 051.6432 242.5845 0006687 129.9667 319.6159 15.72114601563680 CXO 1 25867U 99040B 08265.41666667 +.00000182 +00000-0 +10000-3 0 02452 2 25867 064.2320 077.7714 7003604 277.9435 358.6704 00.37797512003992 ____________________________________________________________________ These 2-Line ...Continue Reading

[list_settings.list_name] Current TLEs

September 21st 2008 PDT

HST 1 20580U 90037B 08264.53131677 .00000306 00000-0 10810-4 0 2241 2 20580 028.4675 061.3517 0003533 312.3786 047.6502 15.00408528809314 ISS (ZARYA) 1 25544U 98067A 08264.51782528 -.00002182 00000-0 -11606-4 0 2927 2 25544 051.6416 247.4627 0006703 130.5360 325.0288 15.72125391563537 CXO 1 25867U 99040B 08262.75000000 +.00000284 +00000-0 +10000-3 0 02441 2 25867 064.2129 077.8609 7002105 277.9854 355.6010 00.37804427003983 ____________________________________________________________________ These 2-Line ...Continue Reading

[list_settings.list_name] Current TLEs

September 20th 2008 PDT

HST 1 20580U 90037B 08262.80185450 .00000303 00000-0 10560-4 0 2235 2 20580 028.4674 072.6299 0003532 294.7571 065.2652 15.00407993809057 ISS (ZARYA) 1 25544U 98067A 08263.50002433 .00008988 00000-0 71331-4 0 2845 2 25544 051.6417 252.6754 0006843 128.1839 323.1095 15.72144976563373 CXO 1 25867U 99040B 08262.75000000 +.00000284 +00000-0 +10000-3 0 02441 2 25867 064.2129 077.8609 7002105 277.9854 355.6010 00.37804427003983 ____________________________________________________________________ These 2-Line ...Continue Reading

[list_settings.list_name] Current TLEs

September 19th 2008 PDT

HST 1 20580U 90037B 08262.80185450 .00000303 00000-0 10560-4 0 2235 2 20580 028.4674 072.6299 0003532 294.7571 065.2652 15.00407993809057 ISS (ZARYA) 1 25544U 98067A 08262.49137262 .00007507 00000-0 60411-4 0 2776 2 25544 051.6418 257.8410 0006802 124.7476 014.0381 15.72120259563219 CXO 1 25867U 99040B 08262.75000000 +.00000284 +00000-0 +10000-3 0 02441 2 25867 064.2129 077.8609 7002105 277.9854 355.6010 00.37804427003983 ____________________________________________________________________ These 2-Line ...Continue Reading

[list_settings.list_name] Current TLEs

September 18th 2008 PDT

HST 1 20580U 90037B 08260.87283911 .00000280 00000-0 87854-5 0 2225 2 20580 028.4676 085.2121 0003604 274.5241 085.4941 15.00407314808762 ISS (ZARYA) 1 25544U 98067A 08261.52936461 .00006298 00000-0 51477-4 0 2708 2 25544 051.6425 262.7665 0006950 121.3171 329.2097 15.72100381563065 CXO 1 25867U 99040B 08260.12500000 +.00000341 +00000-0 +10000-3 0 02438 2 25867 064.1926 077.9647 6999985 277.9798 358.3046 00.37808794003976 ____________________________________________________________________ These 2-Line ...Continue Reading

[list_settings.list_name] Current TLEs

September 17th 2008 PDT

HST 1 20580U 90037B 08260.87283911 .00000280 00000-0 87854-5 0 2225 2 20580 028.4676 085.2121 0003604 274.5241 085.4941 15.00407314808762 ISS (ZARYA) 1 25544U 98067A 08260.52254209 .00005033 00000-0 42102-4 0 2622 2 25544 051.6420 267.9221 0006994 117.9417 030.5893 15.72081521562909 CXO 1 25867U 99040B 08260.12500000 +.00000341 +00000-0 +10000-3 0 02438 2 25867 064.1926 077.9647 6999985 277.9798 358.3046 00.37808794003976 ____________________________________________________________________ These 2-Line ...Continue Reading

[list_settings.list_name] Current TLEs

September 16th 2008 PDT

HST 1 20580U 90037B 08258.87730566 +.00000277 +00000-0 +85591-5 0 02407 2 20580 028.4677 098.2277 0003689 253.6013 106.4171 15.00406831808466 ISS (ZARYA) 1 25544U 98067A 08259.79592593 .00004684 00000-0 39523-4 0 2589 2 25544 051.6419 271.6431 0007017 115.9630 237.5263 15.72071711562780 CXO 1 25867U 99040B 08260.12500000 +.00000341 +00000-0 +10000-3 0 02438 2 25867 064.1926 077.9647 6999985 277.9798 358.3046 00.37808794003976 ____________________________________________________________________ These 2-Line ...Continue Reading

[list_settings.list_name] Current TLEs

September 15th 2008 PDT

HST 1 20580U 90037B 08258.94382342 .00000281 00000-0 88879-5 0 2216 2 20580 028.4678 097.7939 0003676 254.2803 105.7381 15.00406887808473 ISS (ZARYA) 1 25544U 98067A 08258.55010439 .00005276 00000-0 43946-4 0 2498 2 25544 051.6419 278.0214 0006988 111.6802 026.4229 15.72060699562599 CXO 1 25867U 99040B 08254.95833333 +.00000163 +00000-0 +10000-3 0 02421 2 25867 064.1624 078.1062 6991874 277.9806 015.0451 00.37806007003954 ____________________________________________________________________ These 2-Line ...Continue Reading

[list_settings.list_name] Current TLEs

September 14th 2008 PDT

HST 1 20580U 90037B 08257.87953908 .00000290 00000-0 95366-5 0 2207 2 20580 028.4677 104.7349 0003668 242.9418 117.0797 15.00406695808310 ISS (ZARYA) 1 25544U 98067A 08258.15690191 .00005512 00000-0 45710-4 0 2464 2 25544 051.6422 280.0340 0006941 110.0823 321.2315 15.72057090562538 CXO 1 25867U 99040B 08254.95833333 +.00000163 +00000-0 +10000-3 0 02421 2 25867 064.1624 078.1062 6991874 277.9806 015.0451 00.37806007003954 ____________________________________________________________________ These 2-Line ...Continue Reading

[list_settings.list_name] Current TLEs

September 13th 2008 PDT

HST 1 20580U 90037B 08256.01704197 .00000364 00000-0 15305-4 0 2190 2 20580 028.4675 116.8898 0003840 223.4696 136.5588 15.00406755808035 ISS (ZARYA) 1 25544U 98067A 08256.51778069 .00006423 00000-0 52535-4 0 2378 2 25544 051.6427 288.4259 0007025 104.6145 044.0694 15.72040086562272 CXO 1 25867U 99040B 08254.95833333 +.00000163 +00000-0 +10000-3 0 02421 2 25867 064.1624 078.1062 6991874 277.9806 015.0451 00.37806007003954 ____________________________________________________________________ These 2-Line ...Continue Reading
  • This mailing list is a public mailing list - anyone may join or leave, at any time.
  • This mailing list is announce-only.

International Space Station (ISS) / Hubble Space Telescope (HST) / Chandra X-Ray Observatory Orbital Data via EMAIL

Privacy Policy:

Private list